This demonstration page uses our WeatherBlox Daily Observations layout. Learn more.

Left ArrowRight Arrow

Hourly Observations for September 20, 2021

Temp ( °F °C ) Dew Point ( °F °C ) Humidity (%) Winds ( mph kmh ) Pressure ( in mb ) Visibility ( mi km ) Precip ( " mm )
12:53 am 00:53 Clear 76 24.4 63 17.2 64 64 S 14 22 29.64 1004 10 16 0.00 0.00
1:53 am 01:53 Clear 75 23.9 63 17.2 66 66 S 15 24 29.61 1003 10 16 0.00 0.00
2:53 am 02:53 Mostly Clear 77 25 61 16.1 58 58 S 21 33 29.56 1001 10 16 0.00 0.00
3:53 am 03:53 Partly Cloudy 73 22.8 63 17.2 71 71 SSE 13 20 29.56 1001 10 16 0.04 1.02
4:53 am 04:53 Clear 72 22.2 62 16.7 71 71 SSE 12 19 29.56 1001 10 16 0.00 0.00
5:53 am 05:53 Clear 68 20 63 17.2 84 84 N 7 11 29.64 1004 10 16 0.00 0.00
6:53 am 06:53 Partly Cloudy 68 20 62 16.7 81 81 NNW 12 19 29.69 1005 10 16 0.00 0.00
7:53 am 07:53 Mostly Cloudy 62 16.7 51 10.6 67 67 N 12 19 29.73 1007 10 16 0.00 0.00
8:53 am 08:53 Cloudy 64 17.8 51 10.6 63 63 N 13 20 29.77 1008 10 16 0.00 0.00
9:53 am 09:53 Cloudy 65 18.3 51 10.6 61 61 NNW 15 24 29.79 1009 10 16 0.00 0.00
10:53 am 10:53 Cloudy 69 20.6 51 10.6 53 53 N 10 17 29.80 1009 10 16 0.00 0.00
11:53 am 11:53 Cloudy 72 22.2 51 10.6 48 48 N 10 17 29.81 1010 10 16 0.00 0.00
12:53 pm 12:53 Cloudy 68 20 51 10.6 55 55 NW 21 33 29.87 1012 10 16 0.00 0.00
1:53 pm 13:53 Mostly Cloudy 68 20 52 11.1 57 57 NW 22 35 29.89 1012 10 16 0.00 0.00
2:53 pm 14:53 Sunny 70 21.1 52 11.1 53 53 NNW 21 33 29.90 1013 10 16 0.00 0.00
3:53 pm 15:53 Sunny 70 21.1 51 10.6 51 51 NNW 23 37 29.93 1013 10 16 0.00 0.00
4:53 pm 16:53 Mostly Cloudy 69 20.6 50 10 51 51 NNW 22 35 29.95 1014 10 16 0.00 0.00
5:53 pm 17:53 Sunny 69 20.6 47 8.3 45 45 NNW 16 26 29.96 1015 10 16 0.00 0.00
6:53 pm 18:53 Sunny 67 19.4 47 8.3 49 49 N 15 24 29.99 1016 10 16 0.00 0.00
7:53 pm 19:53 Clear 62 16.7 47 8.3 58 58 N 8 13 30.03 1017 10 16 0.00 0.00
8:53 pm 20:53 Clear 57 13.9 48 8.9 72 72 NNW 6 9 30.06 1018 10 16 0.00 0.00
9:53 pm 21:53 Clear 56 13.3 48 8.9 75 75 NNW 7 11 30.10 1019 10 16 0.00 0.00
10:53 pm 22:53 Clear 54 12.2 47 8.3 77 77 NNW 6 9 30.11 1020 10 16 0.00 0.00
11:53 pm 23:53 Clear 54 12.2 47 8.3 77 77 NW 5 7 30.16 1021 10 16 0.00 0.00

Powered by AerisWeather